Terminal Aerodrome Forecast
Issued by NWS Memphis, TN

Home | Current Version | Previous Version | Text Only | Print | Product List | Glossary On
Versions: 1 2 3 4 5 6 7 8 9 10 11 12 13 14 15 16
000
FTUS44 KMEG 270522
TAFJBR
TAF
KJBR 270522Z 2706/2806 00000KT P6SM SKC
     FM271000 36006KT P6SM FEW035 BKN090
     FM271400 01010KT P6SM VCSH SCT025 OVC040
      TEMPO 2715/2719 6SM -SHRA BKN025
     FM280100 34005KT P6SM SCT040 BKN150=

USA.gov is the U.S. government's official web portal to all federal, state and local government web resources and services.